Weather History for KTCL - September, 2012

Change the Weather History Date:

Monday, September 3, 2012

  Actual Average Record
Temperature  
Mean Temperature 80 °F 79 °F  
Max Temperature 89 °F 90 °F 102 °F (1951)
Min Temperature 71 °F 68 °F 51 °F (1952)
Degree Days  
Heating Degree Days 0 0  
Month to date heating degree days 0 0  
Since 1 July heating degree days 0 0  
Cooling Degree Days 15    
Growing Degree Days 30 (Base 50)    
Moisture  
Dew Point 73 °F    
Average Humidity 85    
Maximum Humidity 94    
Minimum Humidity 75    
Precipitation  
Precipitation 2.82 in 0.11 in 2.82 in (2012)
Month to date precipitation 4.15 0.32  
Year to date precipitation 33.84 36.19  
Sea Level Pressure  
Sea Level Pressure 29.91 in    
Wind  
Wind Speed 6 mph (South)    
Max Wind Speed 20 mph    
Max Gust Speed 28 mph    
Visibility 6 miles    
Events Fog , Rain , Thunderstorm    
T = Trace of Precipitation, MM = Missing Value Source: NWS Daily Summary

Daily Weather History Graph

Daily Weather History Graph

Search for Another Location

Airport or City:

Trip Planner

Search our weather history database for the weather conditions in past years. The results will help you decide how hot, cold, wet, or windy it might be!

Date:

Astronomy

Sep. 03, 2012 Rise Set
Actual Time 6:26 AM CDT 7:12 PM CDT
Civil Twilight 6:01 AM CDT 7:37 PM CDT
Nautical Twilight 5:31 AM CDT 8:07 PM CDT
Astronomical Twilight 5:01 AM CDT 8:37 PM CDT
Moon 8:45 PM CDT (9/3) 9:20 AM CDT (9/3)
Length of Visible Light 13h 36m
Length of Day
12h 45m
Waning Gibbous, 90% of the Moon is Illuminated
Sep 3
Waning Gibbous
Sep 8
Last Quarter
Sep 15
New
Sep 22
First Quarter
Sep 29
Full

Hourly Weather History & Observations

Time (CDT) Temp. Heat Index Dew Point Humidity Pressure Visibility Wind Dir Wind Speed Gust Speed Precip Events Conditions
12:48 AM 80.6 °F 86.2 °F 75.2 °F 84% 29.97 in 8.0 mi NNW 10.4 mph - N/A Thunderstorm Overcast
12:53 AM 79.0 °F - 73.9 °F 84% 29.96 in 9.0 mi NNW 17.3 mph 25.3 mph N/A Thunderstorm Overcast
1:03 AM 77.0 °F - 71.6 °F 83% 29.98 in 9.0 mi NW 17.3 mph 27.6 mph 0.00 in Rain Light Rain
1:25 AM 73.4 °F - 69.8 °F 88% 29.96 in 6.0 mi North 5.8 mph 19.6 mph 0.03 in Rain , Thunderstorm Light Rain
1:40 AM 73.4 °F - 69.8 °F 88% 29.96 in 10.0 mi Calm Calm - 0.03 in Rain Light Rain
1:53 AM 73.0 °F - 71.1 °F 93% 29.93 in 7.0 mi East 3.5 mph - 0.03 in Rain Light Rain
2:53 AM 72.0 °F - 71.1 °F 97% 29.98 in 3.0 mi SSW 3.5 mph - 0.04 in Rain Rain
3:53 AM 71.6 °F - 69.8 °F 94% 29.99 in 5.0 mi SSW 4.6 mph - N/A Rain Rain
4:53 AM 72.0 °F - 70.0 °F 93% 29.96 in 10.0 mi NW 3.5 mph - 0.03 in   Scattered Clouds
5:53 AM 72.0 °F - 70.0 °F 93% 29.96 in 10.0 mi Variable 3.5 mph - 0.00 in   Mostly Cloudy
6:34 AM 71.6 °F - 71.6 °F 100% 29.96 in 1.8 mi Calm Calm - 0.12 in Rain Heavy Rain
6:44 AM 71.6 °F - 71.6 °F 100% 29.95 in 3.0 mi SSE 3.5 mph - 0.16 in Rain Light Rain
6:53 AM 72.0 °F - 71.1 °F 97% 29.94 in 10.0 mi SSE 4.6 mph - 0.16 in Rain Light Rain
7:53 AM 73.0 °F - 71.1 °F 93% 29.96 in 10.0 mi South 4.6 mph - N/A   Overcast
8:21 AM 73.4 °F - 71.6 °F 94% 29.97 in 10.0 mi South 8.1 mph - N/A   Mostly Cloudy
8:53 AM 73.9 °F - 71.1 °F 91% 29.96 in 10.0 mi South 9.2 mph - N/A   Overcast
9:02 AM 73.4 °F - 71.6 °F 94% 29.97 in 10.0 mi South 9.2 mph - N/A   Overcast
9:11 AM 73.4 °F - 71.6 °F 94% 29.97 in 10.0 mi South 5.8 mph - N/A   Mostly Cloudy
9:53 AM 75.9 °F - 72.0 °F 87% 29.97 in 10.0 mi South 6.9 mph - N/A   Mostly Cloudy
10:01 AM 75.2 °F - 73.4 °F 94% 29.97 in 10.0 mi South 4.6 mph - N/A   Mostly Cloudy
10:53 AM 80.1 °F 84.5 °F 73.9 °F 81% 29.97 in 10.0 mi SSW 5.8 mph - N/A   Mostly Cloudy
11:53 AM 81.0 °F 86.7 °F 75.0 °F 82% 29.95 in 10.0 mi South 6.9 mph - N/A   Overcast
12:12 PM 82.4 °F 89.5 °F 75.2 °F 79% 29.95 in 9.0 mi South 8.1 mph - N/A   Overcast
12:53 PM 84.0 °F 93.7 °F 77.0 °F 79% 29.93 in 9.0 mi South 5.8 mph - N/A   Overcast
1:53 PM 87.1 °F 101.5 °F 79.0 °F 77% 29.91 in 8.0 mi South 8.1 mph - N/A   Mostly Cloudy
2:53 PM 88.0 °F 103.1 °F 79.0 °F 75% 29.87 in 8.0 mi SSW 9.2 mph - 0.00 in   Scattered Clouds
3:14 PM 89.6 °F 104.7 °F 78.8 °F 70% 29.86 in 8.0 mi SSW 4.6 mph - N/A Thunderstorm Partly Cloudy
3:41 PM 87.8 °F 104.9 °F 80.6 °F 79% 29.86 in 8.0 mi South 9.2 mph - N/A   Scattered Clouds
3:53 PM 88.0 °F 104.3 °F 80.1 °F 77% 29.85 in 8.0 mi SSW 8.1 mph - N/A Thunderstorm Partly Cloudy
4:12 PM 84.2 °F 92.3 °F 75.2 °F 74% 29.84 in 9.0 mi South 12.7 mph 20.7 mph N/A   Clear
4:22 PM 82.4 °F 88.2 °F 73.4 °F 74% 29.85 in 10.0 mi South 6.9 mph - N/A Thunderstorm Scattered Clouds
4:41 PM 80.6 °F 86.2 °F 75.2 °F 84% 29.87 in 1.5 mi North 12.7 mph - N/A Rain , Thunderstorm Thunderstorms and Rain
4:49 PM 78.8 °F - 71.6 °F 78% 29.85 in 0.5 mi Variable 5.8 mph - 0.26 in Rain , Thunderstorm Heavy Thunderstorms and Rain
4:53 PM 78.1 °F - 73.0 °F 84% 29.85 in 1.2 mi Variable 3.5 mph - 0.26 in Rain , Thunderstorm Light Thunderstorms and Rain
4:55 PM 78.8 °F - 73.4 °F 83% 29.85 in 3.0 mi ENE 4.6 mph - 0.00 in Rain , Thunderstorm Light Thunderstorms and Rain
5:27 PM 75.2 °F - 73.4 °F 94% 29.87 in 1.8 mi SE 8.1 mph - 0.08 in Rain , Thunderstorm Light Thunderstorms and Rain
5:36 PM 77.0 °F - 73.4 °F 89% 29.86 in 10.0 mi SE 9.2 mph - 0.08 in Rain , Thunderstorm Light Rain
5:53 PM 77.0 °F - 73.0 °F 88% 29.85 in 10.0 mi East 6.9 mph - 0.08 in Rain , Thunderstorm Light Rain
6:09 PM 77.0 °F - 73.4 °F 89% 29.86 in 1.5 mi East 9.2 mph - 0.12 in Rain , Thunderstorm Heavy Thunderstorms and Rain
6:18 PM 77.0 °F - 73.4 °F 89% 29.87 in 0.8 mi SE 13.8 mph - 0.21 in Rain , Thunderstorm Heavy Thunderstorms and Rain
6:23 PM 77.0 °F - 73.4 °F 89% 29.86 in 1.5 mi SSE 12.7 mph 21.9 mph 0.21 in Rain , Thunderstorm Light Thunderstorms and Rain
6:30 PM 77.0 °F - 73.4 °F 89% 29.85 in 6.0 mi SE 10.4 mph 18.4 mph 0.22 in Rain , Thunderstorm Light Thunderstorms and Rain
6:40 PM 75.2 °F - 73.4 °F 94% 29.86 in 8.0 mi East 8.1 mph - 0.22 in Rain , Thunderstorm Light Thunderstorms and Rain
6:49 PM 75.2 °F - 73.4 °F 94% 29.87 in 1.8 mi NE 6.9 mph - 0.27 in Rain , Thunderstorm Heavy Thunderstorms and Rain
6:53 PM 75.9 °F - 73.9 °F 94% 29.87 in 1.5 mi North 11.5 mph 20.7 mph 0.28 in Rain , Thunderstorm Thunderstorms and Rain
7:00 PM 75.2 °F - 73.4 °F 94% 29.87 in 0.8 mi East 10.4 mph 20.7 mph 0.39 in Rain , Thunderstorm Heavy Thunderstorms and Rain
7:15 PM 75.2 °F - 73.4 °F 94% 29.91 in 1.8 mi Variable 3.5 mph 18.4 mph 0.62 in Rain , Thunderstorm Thunderstorms and Rain
7:18 PM 75.2 °F - 73.4 °F 94% 29.91 in 1.8 mi NW 11.5 mph - 0.69 in Rain , Thunderstorm Thunderstorms and Rain
7:36 PM 75.2 °F - 73.4 °F 94% 29.89 in 2.5 mi SSW 9.2 mph - 0.80 in Rain , Thunderstorm Thunderstorms and Rain
7:42 PM 75.2 °F - 73.4 °F 94% 29.90 in 4.0 mi South 13.8 mph - 0.80 in Rain , Thunderstorm Light Thunderstorms and Rain
7:53 PM 75.0 °F - 73.0 °F 94% 29.91 in 8.0 mi South 12.7 mph - 0.80 in Rain , Thunderstorm Light Thunderstorms and Rain
8:53 PM 73.9 °F - 72.0 °F 93% 29.88 in 10.0 mi Variable 5.8 mph - 0.07 in Thunderstorm Mostly Cloudy
9:27 PM 73.4 °F - 71.6 °F 94% 29.90 in 1.8 mi SSW 10.4 mph - 0.14 in Rain , Thunderstorm Heavy Thunderstorms and Rain
9:37 PM 73.4 °F - 73.4 °F 100% 29.91 in 3.0 mi SSW 6.9 mph - 0.18 in Rain , Thunderstorm Light Thunderstorms and Rain
9:53 PM 73.4 °F - 73.4 °F 100% 29.96 in 3.0 mi North 9.2 mph 17.3 mph N/A Rain , Thunderstorm Thunderstorms and Rain
9:56 PM 73.4 °F - 73.4 °F 100% 29.96 in 1.5 mi NNW 5.8 mph 17.3 mph 0.06 in Rain , Thunderstorm Heavy Thunderstorms and Rain
10:11 PM 73.4 °F - 71.6 °F 94% 29.95 in 0.5 mi Calm Calm - 0.36 in Fog , Rain , Thunderstorm Heavy Thunderstorms and Rain
10:23 PM 73.4 °F - 71.6 °F 94% 29.93 in 1.5 mi Calm Calm - 0.49 in Rain , Thunderstorm Thunderstorms and Rain
10:27 PM 73.4 °F - 71.6 °F 94% 29.94 in 3.0 mi SW 6.9 mph - 0.49 in Rain , Thunderstorm Light Thunderstorms and Rain
10:32 PM 73.4 °F - 71.6 °F 94% 29.94 in 2.5 mi SW 9.2 mph - 0.57 in Rain , Thunderstorm Heavy Rain
10:37 PM 73.4 °F - 73.4 °F 100% 29.92 in 1.5 mi SSW 8.1 mph - 0.67 in Rain , Thunderstorm Heavy Rain
10:45 PM 73.4 °F - 71.6 °F 94% 29.92 in 3.0 mi SW 8.1 mph - 0.67 in Rain , Thunderstorm Light Rain
10:53 PM 73.0 °F - 72.0 °F 96% 29.91 in 8.0 mi South 6.9 mph - 0.67 in Rain Light Rain
11:11 PM 73.4 °F - 71.6 °F 94% 29.89 in 10.0 mi Variable 3.5 mph - 0.00 in Thunderstorm Scattered Clouds
11:26 PM 73.4 °F - 71.6 °F 94% 29.90 in 10.0 mi South 6.9 mph - 0.00 in   Clear
11:53 PM 73.0 °F - 71.1 °F 93% 29.89 in 10.0 mi South 4.6 mph - 0.00 in   Clear